Time,TemperatureF,DewpointF,PressureIn,WindDirection,WindDirectionDegrees,WindSpeedMPH,WindSpeedGustMPH,Humidity,HourlyPrecipIn,Conditions,Clouds,dailyrainin,SoftwareType,DateUTC
2013-04-12 00:03:00,34.2,21.7,29.82,NW,322,2.0,6.9,60,0.00,,,-99.99,FreeWX 2.04,2013-04-12 06:03:00,
2013-04-12 00:13:00,33.8,21.4,29.82,North,-999,0.0,2.7,60,0.00,,,-99.99,FreeWX 2.04,2013-04-12 06:13:00,
2013-04-12 00:23:00,33.3,21.7,29.82,North,-999,0.0,0.0,62,0.00,,,-99.99,FreeWX 2.04,2013-04-12 06:23:00,
2013-04-12 00:34:00,32.7,21.9,29.82,North,-999,0.0,3.6,64,0.00,,,-99.99,FreeWX 2.04,2013-04-12 06:34:00,
2013-04-12 00:44:00,32.7,22.6,29.79,ESE,112,1.0,5.4,66,0.00,,,-99.99,FreeWX 2.04,2013-04-12 06:44:00,
2013-04-12 00:54:00,32.7,22.6,29.79,East,99,2.0,4.9,66,0.00,,,-99.99,FreeWX 2.04,2013-04-12 06:54:00,
2013-04-12 01:04:00,32.9,22.1,29.79,ESE,117,4.0,6.9,64,0.00,,,-99.99,FreeWX 2.04,2013-04-12 07:04:00,
2013-04-12 01:14:00,32.7,21.6,29.79,ESE,112,3.0,7.4,63,0.00,,,-99.99,FreeWX 2.04,2013-04-12 07:14:00,
2013-04-12 01:24:00,32.5,21.0,29.79,ESE,108,2.0,6.3,62,0.00,,,-99.99,FreeWX 2.04,2013-04-12 07:24:00,
2013-04-12 01:34:00,32.0,20.1,29.79,ESE,105,1.0,5.8,61,0.00,,,-99.99,FreeWX 2.04,2013-04-12 07:34:00,
2013-04-12 01:44:00,31.6,20.1,29.79,SSE,151,2.0,5.8,62,0.00,,,-99.99,FreeWX 2.04,2013-04-12 07:44:00,
2013-04-12 01:54:00,31.1,19.9,29.82,SE,124,4.0,6.7,63,0.00,,,-99.99,FreeWX 2.04,2013-04-12 07:54:00,
2013-04-12 02:04:00,30.2,19.2,29.82,ESE,120,3.0,5.8,63,0.00,,,-99.99,FreeWX 2.04,2013-04-12 08:04:00,
2013-04-12 02:14:00,29.7,19.0,29.82,ESE,106,2.0,5.4,64,0.00,,,-99.99,FreeWX 2.04,2013-04-12 08:14:00,
2013-04-12 02:24:00,29.7,19.8,29.79,East,100,4.0,5.8,66,0.00,,,-99.99,FreeWX 2.04,2013-04-12 08:24:00,
2013-04-12 02:34:00,29.5,18.9,29.79,ESE,102,3.0,6.7,64,0.00,,,-99.99,FreeWX 2.04,2013-04-12 08:34:00,
2013-04-12 02:44:00,29.5,18.5,29.79,ESE,103,4.0,7.8,63,0.00,,,-99.99,FreeWX 2.04,2013-04-12 08:44:00,
2013-04-12 02:54:00,29.1,18.1,29.79,ESE,108,4.0,6.9,63,0.00,,,-99.99,FreeWX 2.04,2013-04-12 08:54:00,
2013-04-12 03:04:00,29.1,17.8,29.79,ESE,109,4.0,7.4,62,0.00,,,-99.99,FreeWX 2.04,2013-04-12 09:04:00,
2013-04-12 03:14:00,29.3,17.2,29.79,ESE,114,2.0,6.3,60,0.00,,,-99.99,FreeWX 2.04,2013-04-12 09:14:00,
2013-04-12 03:24:00,28.6,15.3,29.79,ENE,77,1.0,4.5,57,0.00,,,-99.99,FreeWX 2.04,2013-04-12 09:24:00,
2013-04-12 03:34:00,28.6,15.6,29.79,North,-999,0.0,0.0,58,0.00,,,-99.99,FreeWX 2.04,2013-04-12 09:34:00,
2013-04-12 03:44:00,28.2,16.2,29.82,ESE,111,1.0,5.4,60,0.00,,,-99.99,FreeWX 2.04,2013-04-12 09:44:00,
2013-04-12 03:54:00,27.5,15.8,29.82,North,-999,0.0,0.0,61,0.00,,,-99.99,FreeWX 2.04,2013-04-12 09:54:00,
2013-04-12 04:04:00,27.3,16.3,29.82,North,-999,0.0,0.0,63,0.00,,,-99.99,FreeWX 2.04,2013-04-12 10:04:00,
2013-04-12 04:14:00,26.4,16.0,29.82,North,-999,0.0,0.0,64,0.00,,,-99.99,FreeWX 2.04,2013-04-12 10:14:00,
2013-04-12 04:24:00,26.4,16.3,29.82,North,-999,0.0,0.0,65,0.00,,,-99.99,FreeWX 2.04,2013-04-12 10:24:00,
2013-04-12 04:34:00,26.6,16.9,29.82,SSE,150,1.0,4.5,66,0.00,,,-99.99,FreeWX 2.04,2013-04-12 10:34:00,
2013-04-12 04:44:00,27.1,18.7,29.82,North,-999,0.0,4.5,70,0.00,,,-99.99,FreeWX 2.04,2013-04-12 10:44:00,
2013-04-12 04:54:00,27.1,19.0,29.82,NW,311,1.0,4.9,71,0.00,,,-99.99,FreeWX 2.04,2013-04-12 10:54:00,
2013-04-12 05:04:00,27.1,19.4,29.82,North,-999,0.0,3.1,72,0.00,,,-99.99,FreeWX 2.04,2013-04-12 11:04:00,
2013-04-12 05:14:00,27.0,19.4,29.82,North,-999,0.0,0.0,73,0.00,,,-99.99,FreeWX 2.04,2013-04-12 11:14:00,
2013-04-12 05:24:00,27.0,19.8,29.82,North,-999,0.0,4.5,74,0.00,,,-99.99,FreeWX 2.04,2013-04-12 11:24:00,
2013-04-12 05:34:00,26.2,19.4,29.82,North,-999,0.0,0.0,75,0.00,,,-99.99,FreeWX 2.04,2013-04-12 11:34:00,
2013-04-12 05:44:00,26.6,20.1,29.82,North,-999,0.0,0.0,76,0.00,,,-99.99,FreeWX 2.04,2013-04-12 11:44:00,
2013-04-12 05:54:00,25.7,18.9,29.82,North,-999,0.0,0.0,75,0.00,,,-99.99,FreeWX 2.04,2013-04-12 11:54:00,
2013-04-12 06:04:00,25.3,18.9,29.82,North,-999,0.0,0.0,76,0.00,,,-99.99,FreeWX 2.04,2013-04-12 12:04:00,
2013-04-12 06:14:00,25.0,18.5,29.82,North,-999,0.0,0.0,76,0.00,,,-99.99,FreeWX 2.04,2013-04-12 12:14:00,
2013-04-12 06:24:00,24.6,18.1,29.82,NW,312,1.0,4.0,76,0.00,,,-99.99,FreeWX 2.04,2013-04-12 12:24:00,
2013-04-12 06:34:00,24.6,18.1,29.82,North,-999,0.0,4.5,76,0.00,,,-99.99,FreeWX 2.04,2013-04-12 12:34:00,
2013-04-12 06:44:00,24.6,18.1,29.82,East,100,1.0,4.5,76,0.00,,,-99.99,FreeWX 2.04,2013-04-12 12:44:00,
2013-04-12 06:54:00,24.3,17.4,29.82,North,-999,0.0,0.0,75,0.00,,,-99.99,FreeWX 2.04,2013-04-12 12:54:00,
2013-04-12 07:04:00,23.9,16.9,29.82,North,-999,0.0,0.0,74,0.00,,,-99.99,FreeWX 2.04,2013-04-12 13:04:00,
2013-04-12 07:14:00,23.0,15.3,29.85,North,-999,0.0,0.0,72,0.00,,,-99.99,FreeWX 2.04,2013-04-12 13:14:00,
2013-04-12 07:24:00,23.2,15.3,29.85,North,-999,0.0,0.0,71,0.00,,,-99.99,FreeWX 2.04,2013-04-12 13:24:00,
2013-04-12 07:34:00,24.3,16.2,29.85,North,-999,0.0,0.0,71,0.00,,,-99.99,FreeWX 2.04,2013-04-12 13:34:00,
2013-04-12 07:44:00,26.8,18.3,29.85,North,-999,0.0,0.0,70,0.00,,,-99.99,FreeWX 2.04,2013-04-12 13:44:00,
2013-04-12 07:54:00,28.9,17.6,29.88,North,-999,0.0,0.0,62,0.00,,,-99.99,FreeWX 2.04,2013-04-12 13:54:00,
2013-04-12 08:04:00,30.0,14.9,29.88,North,-999,0.0,2.7,53,0.00,,,-99.99,FreeWX 2.04,2013-04-12 14:04:00,
2013-04-12 08:14:00,31.8,15.3,29.88,North,-999,0.0,0.0,50,0.00,,,-99.99,FreeWX 2.04,2013-04-12 14:14:00,
2013-04-12 08:24:00,32.5,11.5,29.88,North,-999,0.0,0.0,41,0.00,,,-99.99,FreeWX 2.04,2013-04-12 14:24:00,
2013-04-12 08:34:00,31.8,9.1,29.88,North,-999,0.0,4.0,38,0.00,,,-99.99,FreeWX 2.04,2013-04-12 14:34:00,
2013-04-12 08:44:00,32.9,10.8,29.88,North,-999,0.0,3.6,39,0.00,,,-99.99,FreeWX 2.04,2013-04-12 14:44:00,
2013-04-12 08:54:00,32.7,6.8,29.88,North,-999,0.0,5.4,33,0.00,,,-99.99,FreeWX 2.04,2013-04-12 14:54:00,
2013-04-12 09:04:00,33.3,5.9,29.88,WNW,300,1.0,5.4,31,0.00,,,-99.99,FreeWX 2.04,2013-04-12 15:04:00,
2013-04-12 09:14:00,33.3,5.2,29.88,North,353,2.0,6.3,30,0.00,,,-99.99,FreeWX 2.04,2013-04-12 15:14:00,
2013-04-12 09:24:00,33.6,3.2,29.88,North,351,2.0,5.8,27,0.00,,,-99.99,FreeWX 2.04,2013-04-12 15:24:00,
2013-04-12 09:34:00,34.5,4.1,29.88,North,-999,0.0,3.6,27,0.00,,,-99.99,FreeWX 2.04,2013-04-12 15:34:00,
2013-04-12 09:44:00,34.5,-0.4,29.88,WSW,243,2.0,4.9,22,0.00,,,-99.99,FreeWX 2.04,2013-04-12 15:44:00,
2013-04-12 09:54:00,34.9,0.0,29.88,SW,231,1.0,4.9,22,0.00,,,-99.99,FreeWX 2.04,2013-04-12 15:54:00,
2013-04-12 10:04:00,36.5,3.2,29.88,NW,326,1.0,4.5,24,0.00,,,-99.99,FreeWX 2.04,2013-04-12 16:04:00,
2013-04-12 10:14:00,36.0,0.9,29.88,North,355,1.0,5.8,22,0.00,,,-99.99,FreeWX 2.04,2013-04-12 16:14:00,
2013-04-12 10:24:00,37.4,1.0,29.88,North,-999,0.0,4.9,21,0.00,,,-99.99,FreeWX 2.04,2013-04-12 16:24:00,
2013-04-12 10:34:00,37.4,-1.1,29.88,West,264,2.0,5.4,19,0.00,,,-99.99,FreeWX 2.04,2013-04-12 16:34:00,
2013-04-12 10:45:00,40.1,-2.4,29.88,SSE,157,1.0,4.5,16,0.00,,,-99.99,FreeWX 2.04,2013-04-12 16:45:00,
2013-04-12 10:55:00,40.1,-2.4,29.88,ENE,76,2.0,7.4,16,0.00,,,-99.99,FreeWX 2.04,2013-04-12 16:55:00,
2013-04-12 11:05:00,39.7,-2.7,29.88,North,353,3.0,8.3,16,0.00,,,-99.99,FreeWX 2.04,2013-04-12 17:05:00,
2013-04-12 11:15:00,40.5,-2.2,29.88,NNE,19,4.0,9.6,16,0.00,,,-99.99,FreeWX 2.04,2013-04-12 17:15:00,
2013-04-12 11:25:00,40.3,-2.4,29.88,NNE,20,5.0,10.1,16,0.00,,,-99.99,FreeWX 2.04,2013-04-12 17:25:00,
2013-04-12 11:35:00,41.5,-1.3,29.88,North,357,4.0,9.6,16,0.00,,,-99.99,FreeWX 2.04,2013-04-12 17:35:00,
2013-04-12 11:45:00,39.7,-2.7,29.88,NW,326,8.0,12.1,16,0.00,,,-99.99,FreeWX 2.04,2013-04-12 17:45:00,
2013-04-12 11:55:00,42.6,-1.7,29.88,WSW,238,2.0,7.8,15,0.00,,,-99.99,FreeWX 2.04,2013-04-12 17:55:00,
2013-04-12 12:05:00,43.3,-1.1,29.85,WNW,286,4.0,11.0,15,0.00,,,-99.99,FreeWX 2.04,2013-04-12 18:05:00,
2013-04-12 12:15:00,43.5,-0.9,29.85,NW,323,6.0,13.0,15,0.00,,,-99.99,FreeWX 2.04,2013-04-12 18:15:00,
2013-04-12 12:25:00,44.1,-0.6,29.85,North,356,4.0,9.6,15,0.00,,,-99.99,FreeWX 2.04,2013-04-12 18:25:00,
2013-04-12 13:27:00,47.8,1.0,29.85,SW,236,5.0,13.0,14,0.00,,,-99.99,FreeWX 2.04,2013-04-12 19:27:00,
2013-04-12 13:37:00,48.2,1.2,29.85,WSW,243,5.0,11.6,14,0.00,,,-99.99,FreeWX 2.04,2013-04-12 19:37:00,
2013-04-12 13:47:00,49.5,2.3,29.85,SW,215,4.0,8.7,14,0.00,,,-99.99,FreeWX 2.04,2013-04-12 19:47:00,
2013-04-12 13:57:00,48.4,1.4,29.82,WSW,238,6.0,14.3,14,0.00,,,-99.99,FreeWX 2.04,2013-04-12 19:57:00,
2013-04-12 14:07:00,48.7,1.8,29.82,SW,227,5.0,8.3,14,0.00,,,-99.99,FreeWX 2.04,2013-04-12 20:07:00,
2013-04-12 14:17:00,49.8,2.7,29.82,WSW,244,5.0,13.0,14,0.00,,,-99.99,FreeWX 2.04,2013-04-12 20:17:00,
2013-04-12 14:27:00,50.2,2.8,29.82,SW,223,3.0,8.3,14,0.00,,,-99.99,FreeWX 2.04,2013-04-12 20:27:00,
2013-04-12 14:37:00,48.4,1.4,29.82,WSW,244,5.0,11.6,14,0.00,,,-99.99,FreeWX 2.04,2013-04-12 20:37:00,
2013-04-12 14:47:00,50.9,1.8,29.82,WSW,246,5.0,11.2,13,0.00,,,-99.99,FreeWX 2.04,2013-04-12 20:47:00,
2013-04-12 14:57:00,50.7,3.2,29.82,WSW,254,5.0,12.1,14,0.00,,,-99.99,FreeWX 2.04,2013-04-12 20:57:00,
2013-04-12 15:07:00,52.3,3.0,29.82,WSW,244,6.0,12.1,13,0.00,,,-99.99,FreeWX 2.04,2013-04-12 21:07:00,
2013-04-12 15:17:00,50.0,2.7,29.82,WSW,239,5.0,10.1,14,0.00,,,-99.99,FreeWX 2.04,2013-04-12 21:17:00,
2013-04-12 15:27:00,50.7,3.2,29.82,WSW,245,5.0,11.2,14,0.00,,,-99.99,FreeWX 2.04,2013-04-12 21:27:00,
2013-04-12 15:37:00,50.4,3.0,29.82,WSW,249,5.0,9.2,14,0.00,,,-99.99,FreeWX 2.04,2013-04-12 21:37:00,
2013-04-12 15:47:00,49.1,1.9,29.82,West,264,6.0,12.1,14,0.00,,,-99.99,FreeWX 2.04,2013-04-12 21:47:00,
2013-04-12 15:57:00,49.6,2.5,29.79,West,269,6.0,11.0,14,0.00,,,-99.99,FreeWX 2.04,2013-04-12 21:57:00,
2013-04-12 16:07:00,48.2,1.2,29.79,West,280,6.0,10.5,14,0.00,,,-99.99,FreeWX 2.04,2013-04-12 22:07:00,
2013-04-12 16:17:00,49.1,1.9,29.79,WNW,288,6.0,12.1,14,0.00,,,-99.99,FreeWX 2.04,2013-04-12 22:17:00,
2013-04-12 16:27:00,49.3,2.1,29.79,West,268,6.0,11.6,14,0.00,,,-99.99,FreeWX 2.04,2013-04-12 22:27:00,
2013-04-12 16:37:00,48.7,1.8,29.79,West,259,4.0,11.0,14,0.00,,,-99.99,FreeWX 2.04,2013-04-12 22:37:00,
2013-04-12 16:47:00,49.1,1.9,29.79,West,270,7.0,13.0,14,0.00,,,-99.99,FreeWX 2.04,2013-04-12 22:47:00,
2013-04-12 16:57:00,48.6,1.6,29.79,West,275,6.0,11.6,14,0.00,,,-99.99,FreeWX 2.04,2013-04-12 22:57:00,
2013-04-12 17:07:00,48.7,1.8,29.79,West,272,6.0,12.5,14,0.00,,,-99.99,FreeWX 2.04,2013-04-12 23:07:00,
2013-04-12 17:17:00,47.7,0.9,29.79,West,272,6.0,11.6,14,0.00,,,-99.99,FreeWX 2.04,2013-04-12 23:17:00,
2013-04-12 17:27:00,48.9,1.9,29.79,West,268,4.0,8.3,14,0.00,,,-99.99,FreeWX 2.04,2013-04-12 23:27:00,
2013-04-12 17:37:00,50.0,2.7,29.79,West,263,5.0,11.2,14,0.00,,,-99.99,FreeWX 2.04,2013-04-12 23:37:00,
2013-04-12 17:47:00,48.6,1.6,29.79,West,270,6.0,12.5,14,0.00,,,-99.99,FreeWX 2.04,2013-04-12 23:47:00,
2013-04-12 17:57:00,49.6,2.5,29.76,WSW,257,6.0,12.5,14,0.00,,,-99.99,FreeWX 2.04,2013-04-12 23:57:00,
2013-04-12 18:07:00,49.6,2.5,29.76,West,268,5.0,11.0,14,0.00,,,-99.99,FreeWX 2.04,2013-04-13 00:07:00,
2013-04-12 18:17:00,47.8,1.0,29.76,WNW,289,6.0,11.2,14,0.00,,,-99.99,FreeWX 2.04,2013-04-13 00:17:00,
2013-04-12 18:27:00,47.8,1.0,29.76,West,272,4.0,9.2,14,0.00,,,-99.99,FreeWX 2.04,2013-04-13 00:27:00,
2013-04-12 18:37:00,47.3,0.5,29.76,West,265,2.0,7.8,14,0.00,,,-99.99,FreeWX 2.04,2013-04-13 00:37:00,
2013-04-12 18:47:00,46.9,0.3,29.76,WNW,286,5.0,8.7,14,0.00,,,-99.99,FreeWX 2.04,2013-04-13 00:47:00,
2013-04-12 18:57:00,46.6,0.0,29.76,WNW,287,6.0,8.7,14,0.00,,,-99.99,FreeWX 2.04,2013-04-13 00:57:00,
2013-04-12 19:08:00,46.0,-0.4,29.76,WNW,286,6.0,9.6,14,0.00,,,-99.99,FreeWX 2.04,2013-04-13 01:08:00,
2013-04-12 19:18:00,45.5,-0.9,29.76,West,281,5.0,10.1,14,0.00,,,-99.99,FreeWX 2.04,2013-04-13 01:18:00,
2013-04-12 19:28:00,45.3,0.5,29.76,West,281,3.0,6.9,15,0.00,,,-99.99,FreeWX 2.04,2013-04-13 01:28:00,
2013-04-12 19:38:00,44.8,0.0,29.76,West,279,2.0,6.3,15,0.00,,,-99.99,FreeWX 2.04,2013-04-13 01:38:00,
2013-04-12 19:48:00,44.4,-0.2,29.76,West,270,2.0,6.9,15,0.00,,,-99.99,FreeWX 2.04,2013-04-13 01:48:00,
2013-04-12 19:58:00,43.5,-0.9,29.76,North,-999,0.0,4.0,15,0.00,,,-99.99,FreeWX 2.04,2013-04-13 01:58:00,
2013-04-12 20:08:00,42.4,-1.8,29.76,North,-999,0.0,0.0,15,0.00,,,-99.99,FreeWX 2.04,2013-04-13 02:08:00,
2013-04-12 20:18:00,41.0,-1.7,29.76,North,-999,0.0,0.0,16,0.00,,,-99.99,FreeWX 2.04,2013-04-13 02:18:00,
2013-04-12 20:28:00,39.7,-0.2,29.74,West,275,1.0,4.5,18,0.00,,,-99.99,FreeWX 2.04,2013-04-13 02:28:00,
2013-04-12 20:38:00,39.0,2.5,29.74,West,271,2.0,6.3,21,0.00,,,-99.99,FreeWX 2.04,2013-04-13 02:38:00,
2013-04-12 20:48:00,39.0,2.5,29.74,East,96,5.0,7.8,21,0.00,,,-99.99,FreeWX 2.04,2013-04-13 02:48:00,
2013-04-12 20:58:00,38.7,2.1,29.74,East,100,5.0,9.6,21,0.00,,,-99.99,FreeWX 2.04,2013-04-13 02:58:00,
2013-04-12 21:08:00,37.9,1.6,29.74,ESE,113,5.0,9.2,21,0.00,,,-99.99,FreeWX 2.04,2013-04-13 03:08:00,
2013-04-12 21:18:00,37.9,1.6,29.74,East,101,5.0,9.2,21,0.00,,,-99.99,FreeWX 2.04,2013-04-13 03:18:00,
2013-04-12 21:28:00,37.4,3.9,29.74,East,91,4.0,6.7,24,0.00,,,-99.99,FreeWX 2.04,2013-04-13 03:28:00,
2013-04-12 21:38:00,37.2,3.7,29.74,East,99,4.0,7.8,24,0.00,,,-99.99,FreeWX 2.04,2013-04-13 03:38:00,
2013-04-12 21:48:00,37.2,3.7,29.74,ESE,106,4.0,8.7,24,0.00,,,-99.99,FreeWX 2.04,2013-04-13 03:48:00,
2013-04-12 21:58:00,37.0,5.4,29.74,ESE,110,4.0,6.9,26,0.00,,,-99.99,FreeWX 2.04,2013-04-13 03:58:00,
2013-04-12 22:08:00,37.0,5.4,29.74,East,98,4.0,8.3,26,0.00,,,-99.99,FreeWX 2.04,2013-04-13 04:08:00,
2013-04-12 22:18:00,37.2,3.7,29.74,ESE,105,4.0,8.3,24,0.00,,,-99.99,FreeWX 2.04,2013-04-13 04:18:00,
2013-04-12 22:28:00,36.9,3.6,29.74,ESE,110,6.0,10.5,24,0.00,,,-99.99,FreeWX 2.04,2013-04-13 04:28:00,
2013-04-12 22:38:00,36.7,5.0,29.74,ESE,120,6.0,9.6,26,0.00,,,-99.99,FreeWX 2.04,2013-04-13 04:38:00,
2013-04-12 22:48:00,36.0,6.8,29.74,East,98,5.0,8.7,29,0.00,,,-99.99,FreeWX 2.04,2013-04-13 04:48:00,
2013-04-12 23:08:00,36.3,7.2,29.74,ESE,105,5.0,11.0,29,0.00,,,-99.99,FreeWX 2.04,2013-04-13 05:08:00,
2013-04-12 23:18:00,35.6,7.3,29.74,ESE,118,6.0,10.1,30,0.00,,,-99.99,FreeWX 2.04,2013-04-13 05:18:00,
2013-04-12 23:28:00,35.4,7.2,29.74,ESE,109,6.0,9.6,30,0.00,,,-99.99,FreeWX 2.04,2013-04-13 05:28:00,
2013-04-12 23:38:00,35.4,7.2,29.71,ESE,120,6.0,11.2,30,0.00,,,-99.99,FreeWX 2.04,2013-04-13 05:38:00,
2013-04-12 23:48:00,36.3,7.2,29.71,SE,129,7.0,10.1,29,0.00,,,-99.99,FreeWX 2.04,2013-04-13 05:48:00,
2013-04-12 23:58:00,37.0,5.4,29.71,ESE,117,7.0,10.5,26,0.00,,,-99.99,FreeWX 2.04,2013-04-13 05:58:00,